Location: Medlow Airstrip Trail, Medlow Bath NSW 2780, Australia
(33.6682°S, 150.3233°E)
Time: 00:51:01
(UTC+11:00)

Explorer 7 - Pass Details

Date: 19 September 2019
Orbit: 485 x 680 km, 50.3° (Epoch: 14 October)

Event Time Altitude Azimuth Distance (km) Brightness Sun altitude
Rises 19:13:36 0° 254° (WSW) 2,567 12.0 -17.6°
Reaches altitude 10° 19:17:22 10° 292° (WNW) 1,692 10.1 -18.4°
Maximum altitude 19:18:19 11° 307° (NW) 1,648 9.8 -18.6°
Drops below altitude 10° 19:19:16 10° 321° (NW) 1,700 9.7 -18.8°
Enters shadow 19:23:06 - 360° (N) 2,610 10.2 -19.6°
